Regional Weather Roundup
Issued by NWS

Home | Current Version | Previous Version | Graphics & Text | Print | Product List | Glossary On
Versions: 1 2 3 4 5 6 7 8 9 10 11 12 13 14 15 16 17 18 19 20 21 22 23 24 25 26 27 28 29 30 31 32 33 34 35 36 37 38 39 40 41 42 43 44 45 46 47 48 49 50
000
ASUS45 KBOU 281107
RWRCO

WEATHER ROUNDUP FOR COLORADO
NATIONAL WEATHER SERVICE DENVER/BOULDER CO
500 AM MDT MON JUL 28 2014

NOTE: "FAIR" INDICATES FEW OR NO CLOUDS BELOW 12000 FEET WITH NO
SIGNIFICANT WEATHER AND/OR OBSTRUCTIONS TO VISIBILITY.

COZ001>005-013-030-031-281200-
...NORTHWEST COLORADO...

CITY           SKY/WX    TMP DP  RH WIND       PRES   REMARKS
CRAIG          PTCLDY    42  42 100 CALM      30.37R
HAYDEN         PTCLDY    57  43  58 SE5       30.38S
MEEKER         MOCLDY    61  47  59 E6        30.38R
MOUNT WERNER   NOT AVBL
STEAMBOAT SPGS PTCLDY    55  46  71 CALM      30.41R
WALDEN         CLEAR     45  39  81 SE3       30.51S
$$

COZ006>008-011-281200-
...WEST CENTRAL VALLEYS...

CITY           SKY/WX    TMP DP  RH WIND       PRES   REMARKS
GRAND JUNCTION PTCLDY    68  49  50 CALM      30.28R
MONTROSE       CLOUDY    67  52  58 E3        30.38R
EAGLE          MOCLDY    55  50  82 CALM      30.44S
RIFLE          MOCLDY    63  48  58 E7        30.34R
DELTA          MOCLDY    69  57  65 CALM      30.34R
NUCLA          CLOUDY    64  52  63 E8        30.44R
$$

COZ017>023-064>068-281200-
...SOUTHWEST COLORADO...

CITY           SKY/WX    TMP DP  RH WIND       PRES   REMARKS
DURANGO        CLOUDY    61  58  90 NE9       30.47S
CORTEZ         CLOUDY    65  59  81 E3        30.40F
PAGOSA SPRINGS CLOUDY    59  54  83 CALM      30.55S
TELLURIDE      CLOUDY    57  48  72 CALM      30.60S
WOLF CREEK PAS NOT AVBL
$$

COZ009-010-012-014-032>034-037-058>063-281200-
...CENTRAL COLORADO...

CITY           SKY/WX    TMP DP  RH WIND       PRES   REMARKS
ASPEN          PTCLDY    54  44  69 SE3       30.49R
BUENA VISTA    CLOUDY    56  53  89 NW3       30.55S
COPPER MTN     PTCLDY    54  39  58 S10G17    30.80R
BERTHOUD PASS  FAIR      46  32  57 W7        30.85S
COTTONWOOD PAS CLOUDY    54  50  87 CALM      30.66S
GUNNISON       MOCLDY    57  46  67 SE3       30.53S
KREMMLING      PTCLDY    54  46  76 SE3       30.49S
LEADVILLE      CLOUDY    48  45  89 CALM      30.66R
MONARCH PASS   CLOUDY    46  43  87 S9        30.89F
SALIDA         MOCLDY   N/A N/A N/A CALM      30.60R
SUNLIGHT       MOCLDY    54  43  66 W3        30.73R
WILKERSON PASS NOT AVBL
$$

COZ069>075-281200-
...SAN LUIS VALLEY/SANGRE DE CRISTO MOUNTAINS...

CITY           SKY/WX    TMP DP  RH WIND       PRES   REMARKS
ALAMOSA        CLOUDY    56  54  93 E6        30.51F
LA VETA PASS   CLOUDY    46  45  93 SW14G22   30.64F FOG
SAGUACHE       CLOUDY    55  54  94 E10       30.56S
$$

COZ035-036-038>040-281200-
...NORTHERN COLORADO FRONT RANGE...

CITY           SKY/WX    TMP DP  RH WIND       PRES   REMARKS
DENVER INTL AP PTCLDY    63  53  70 S8        30.34R
DMNS CITY PARK   N/A     62  53  72 W3        30.34R
AURORA         PTCLDY    61  53  75 E1        30.36R
FRONT RANGE AP NOT AVBL
ERIE MUNI ARPT PTCLDY    60  57  92 CALM      30.33S
BOULDER MUN AP PTCLDY    61  57  88 CALM      30.34S
CENTENNIAL     MOCLDY    62  52  69 S8        30.36S
BROOMFIELD     PTCLDY    63  59  88 NW9       30.36S
FORT COLLINS   CLEAR     61  57  88 N7        30.35S
LONGMONT       CLEAR     63  59  87 CALM      30.35S
$$

COZ041-046-047-076>085-087-088-281200-
...PIKES PEAK/PALMER DIVIDE AND SOUTHERN FOOTHILLS...

CITY           SKY/WX    TMP DP  RH WIND       PRES   REMARKS
COLO. SPRINGS  PTCLDY    59  56  89 E6        30.43S
A. F. ACADEMY  MOCLDY    56  55  99 NW3       30.44F
ELLICOTT       PTCLDY    58  57  97 SE3       30.42S
FALCON         PTCLDY    55  55  97 SW5       30.47S
FORT CARSON    MOCLDY    58  58  99 N1        30.40S
LIMON          MOCLDY    59  57  93 SE7       30.39S
MONUMENT HILL  MOCLDY    55  52  88 SW8       30.44F
TRINIDAD       CLOUDY    62  60  93 N5        30.39F
$$

COZ042>045-048>051-090-091-281200-
...NORTHEAST COLORADO...

CITY           SKY/WX    TMP DP  RH WIND       PRES   REMARKS
GREELEY ARPT   CLEAR     61  54  77 CALM      30.32S
AKRON          PTCLDY    62  51  67 S7        30.34F
BURLINGTON     MOCLDY    64  55  72 CALM      30.35R
WRAY             N/A     61  49  65 E3        30.32S
STERLING       PTCLDY    63  54  72 NE6       30.30S
HOLYOKE        PTCLDY    59  54  82 E6        30.32S
FORT MORGAN    PTCLDY    64  58  81 SE6       30.32F
$$

COZ086-089-092>099-281200-
...SOUTHEAST COLORADO...

CITY           SKY/WX    TMP DP  RH WIND       PRES   REMARKS
PUEBLO         CLOUDY    65  64  97 NE3       30.34F
LA JUNTA       LGT RAIN  67  65  93 SE5       30.32F
LAMAR          CLOUDY    69  61  75 S7        30.31F
SPRINGFIELD      N/A     62  60  93 S7        30.36F
$$


USA.gov is the U.S. government's official web portal to all federal, state and local government web resources and services.